{"data":{"norad_id":49455,"intl_designator":"2021-104AZ","name":"STARLINK-3145","alt_names":[],"object_type":"PAYLOAD","status":"ACTIVE","operator":null,"country":"US","launch_date":"2021-11-13","launch_site_code":"AFETR","launch_vehicle":null,"mission":null,"orbit_class":"UNKNOWN","rcs_meters":null,"size_class":null,"mass_kg":null,"dimensions":null,"purposes":["comms"],"wikipedia_slug":null,"has_3d_model":false,"image_url":null,"decayed_at":null,"tle_current":{"epoch":"2026-09-20T03:43:17.817312Z","epoch_age_seconds":75061,"freshness":"FRESH","line1":"1 49455U 21104AZ  26263.15506733  .00001604  00000+0  58606-4 0  9993","line2":"2 49455  53.1603  52.9826 0000782  81.1066 279.0025 15.34390282268310","mean_motion":15.34390282,"eccentricity":7.82e-5,"inclination_deg":53.1603,"raan_deg":52.9826,"arg_perigee_deg":81.1066,"mean_anomaly_deg":279.0025,"bstar":5.8606e-5,"rev_number":26831,"period_min":93.848352462389,"perigee_km":462.19716833801,"apogee_km":463.26708026905,"semimajor_km":6840.8691243035,"source":"CELESTRAK","updated_at":"2026-09-20T09:00:39.401494Z"}}}